Probability
6 9 12 15 16 19 23 25 21 15 11 10 9 8 11 12 6 1 0 0 0 0 0 0 0 0 0 0 0 0 0 0 0 0 0 0 0 0
6 6 9 13 16 21 27 29 24 19 15 11 8 7 8 7 3 2 1 1 0 0 0 0 0 0 0 0 0 0 0 0 0 0 0 0 0 0
2 2 4 8 13 20 28 29 24 20 17 13 9 6 5 3 3 4 5 3 2 1 0 0 0 0 0 0 0 0 0 0 0 0 0 0 0 0
0 0 2 5 8 14 20 22 20 18 17 15 11 8 6 4 5 7 6 5 4 2 0 0 0 0 0 0 0 0 0 0 0 0 0 0 0 0
0 0 1 4 6 8 10 14 15 15 18 19 15 13 10 7 7 5 5 5 4 2 0 0 0 0 0 0 0 0 0 0 0 0 0 0 0 0
0 0 0 2 4 5 5 9 14 18 21 22 21 16 12 9 6 4 4 4 3 1 1 0 0 0 0 0 0 0 0 0 0 0 0 0 0 0
0 0 0 0 2 2 3 6 12 18 21 22 19 15 10 6 3 3 3 3 2 3 3 2 1 1 1 0 0 0 0 0 0 0 0 0 0 0
0 0 0 0 1 1 1 2 6 10 14 16 14 10 6 3 1 1 2 2 2 2 3 2 2 2 1 0 0 0 0 0 0 0 0 0 0 0
0 0 0 0 1 0 0 0 1 2 5 9 9 8 6 3 1 1 1 1 1 1 1 1 1 1 1 0 0 0 0 0 0 0 0 0 0 0
0 0 0 0 0 0 0 0 0 0 1 3 5 6 5 3 1 1 2 1 0 0 0 0 0 0 0 0 0 0 0 0 0 0 0 0 0 0
0 0 0 0 0 0 0 0 0 0 0 0 1 2 2 1 1 1 2 1 0 0 0 0 0 0 0 0 0 0 0 0 0 0 0 0 0 0
0 0 0 0 0 0 0 0 0 0 0 0 1 1 1 0 0 1 1 0 0 0 0 0 0 0 0 0 0 0 0 0 0 0 0 0 0 0
0 0 0 0 0 0 0 0 0 0 0 0 1 2 2 1 0 0 0 0 0 0 0 0 0 0 0 0 0 0 0 0 0 0 0 0 0 0
0 0 0 0 0 0 0 0 0 0 0 0 1 2 2 1 0 0 0 0 0 0 0 0 0 0 0 0 0 0 0 0 0 0 0 0 0 0
0 0 0 0 0 0 0 0 0 0 0 0 0 1 1 0 0 0 0 0 0 0 0 0 0 0 0 0 0 0 0 0 0 0 0 0 0 0
0 0 0 0 0 0 0 0 0 0 0 0 0 0 0 0 0 0 0 0 0 0 0 0 0 0 0 0 0 0 0 0 0 0 0 0 0 0
0 0 0 0 0 0 0 0 0 0 0 0 0 0 0 0 0 0 0 0 0 0 0 0 0 0 0 0 0 0 0 0 0 0 0 0 0 0
0 0 0 0 0 0 0 0 0 0 0 0 0 0 0 0 0 0 0 0 0 0 0 0 0 0 0 0 0 0 0 0 0 0 0 0 0 0
0 0 0 0 0 0 0 0 0 0 0 0 0 0 0 0 0 0 0 0 0 0 0 0 0 0 0 0 0 0 0 0 0 0 0 0 0 0
0 0 0 0 0 0 0 0 0 0 0 0 0 0 0 0 0 0 0 0 0 0 0 0 0 0 0 0 0 0 0 0 0 0 0 0 0 0
0 0 0 0 0 0 0 0 0 0 0 0 0 0 0 0 0 0 0 0 0 0 0 0 0 0 0 0 0 0 0 0 0 0 0 0 0 0
0 0 0 0 0 0 0 0 0 0 0 0 0 0 0 0 0 0 0 0 0 0 0 0 0 0 0 0 0 0 0 0 0 0 0 0 0 0
0 0 0 0 0 0 0 0 0 0 0 0 0 0 0 0 0 0 0 0 0 0 0 0 0 0 0 0 0 0 0 0 0 0 0 0 0 0
Wind_Speed
8 10 9 8 8 9 9 8 7 7 8 8 6 7 7 7 7 10 11 15 16 15 14 14 13 12 12 11 11 10 10 10 10 10 9 9 8 7
6 8 9 8 8 8 9 8 8 8 6 5 6 5 6 7 9 9 9 12 16 15 15 14 14 13 13 12 11 10 10 10 10 10 9 8 7 7
6 7 8 9 8 8 8 8 9 8 8 5 5 5 7 8 8 8 8 8 10 15 15 15 15 14 13 13 12 12 11 11 11 10 10 9 9 9
6 7 7 6 8 7 7 9 8 9 8 8 6 6 7 8 8 9 8 8 7 13 16 16 15 14 14 13 12 12 12 11 11 10 10 11 11 10
6 6 7 6 6 5 7 8 7 7 7 7 6 5 5 6 7 8 8 6 7 10 14 14 15 15 14 13 12 12 12 12 11 10 10 11 11 11
6 6 7 6 6 6 6 7 7 7 7 7 6 5 5 6 7 7 7 6 6 7 8 9 12 14 14 14 13 13 13 13 12 11 11 11 11 11
6 5 5 5 5 5 5 5 6 6 6 6 6 6 6 6 7 6 6 6 6 6 7 7 8 8 9 12 13 14 14 14 13 13 12 12 12 12
6 5 3 4 3 4 5 5 6 7 7 7 6 7 8 8 7 7 7 7 5 6 7 6 7 7 7 7 12 15 16 15 14 14 14 13 13 13
6 5 3 2 3 3 3 5 6 7 8 7 8 9 9 9 10 10 9 8 5 7 7 5 5 6 5 7 16 16 17 16 16 15 15 14 13 13
5 5 4 3 3 4 2 2 3 4 5 7 7 8 8 8 9 9 8 7 6 5 5 5 5 5 5 7 14 15 15 16 16 16 15 14 13 12
5 5 5 4 4 5 3 2 2 1 1 2 3 4 5 8 8 7 9 9 6 4 3 4 5 5 4 4 9 13 14 14 14 15 15 14 13 12
5 4 4 5 6 6 4 2 2 2 2 3 4 5 6 8 11 9 9 9 7 4 4 5 6 5 4 3 4 7 9 11 12 13 14 14 13 9
4 4 3 5 5 5 5 3 2 3 2 2 3 4 4 5 6 6 6 7 8 5 7 6 6 5 5 5 3 4 7 8 8 8 11 13 11 7
4 4 4 5 5 4 3 2 2 3 2 1 2 3 3 4 4 5 5 5 4 7 10 8 7 7 7 6 5 5 5 7 7 8 9 11 9 4
4 4 5 5 4 1 2 1 3 2 1 1 1 2 2 4 5 6 7 8 9 7 7 7 8 8 6 6 8 7 6 6 7 7 8 9 9 8
3 2 3 2 1 1 0 0 1 1 0 1 2 3 3 4 5 5 6 7 7 6 5 6 8 8 5 7 8 8 8 8 9 8 8 7 7 7
6 4 2 1 1 0 0 1 1 1 1 2 2 3 4 4 5 5 5 5 5 6 6 5 6 5 5 6 7 8 8 7 8 9 8 7 7 7
7 4 2 2 1 1 1 1 1 1 1 2 3 3 4 5 5 4 5 5 7 7 7 7 7 6 4 2 0 7 8 7 8 9 8 8 8 8
7 5 3 3 2 2 1 1 1 2 2 3 3 4 4 5 5 5 5 5 6 6 6 7 7 6 7 6 4 3 6 7 8 8 8 8 7 7
6 5 5 4 4 3 3 3 3 3 3 3 4 4 4 5 5 5 5 7 7 7 6 6 6 6 5 4 6 6 6 7 8 8 8 7 6 2
6 6 6 5 5 5 4 4 4 4 4 4 4 5 5 5 5 5 5 7 6 6 7 6 4 2 2 3 4 5 6 4 2 5 7 7 7 7
7 7 7 7 6 6 5 5 5 5 6 6 5 6 6 6 7 7 7 7 6 6 6 5 6 5 5 5 5 6 7 7 4 1 4 5 5 5
9 8 7 7 7 7 6 7 8 7 7 7 6 6 6 6 6 6 7 7 6 7 7 7 6 5 5 5 5 4 6 7 6 7 8 10 10 7
Wind_Direction
250 243 238 237 235 233 231 226 222 219 214 208 199 207 209 215 191 198 206 189 194 194 191 188 184 183 181 181 181 177 177 175 173 173 177 178 177 173
258 252 245 239 234 229 228 224 223 229 230 202 196 193 195 208 200 206 212 180 188 191 187 182 178 177 176 175 171 170 168 167 168 169 170 168 165 158
267 264 259 248 237 227 224 224 222 221 228 216 187 187 189 200 193 200 200 193 190 187 185 180 176 174 172 171 170 168 167 166 166 167 166 162 155 149
283 275 272 263 246 233 225 224 222 220 220 216 195 188 195 194 190 191 192 194 190 181 181 179 175 170 168 168 168 167 167 165 163 164 165 162 156 148
292 283 277 265 257 242 233 228 220 218 218 217 200 186 190 186 183 186 185 180 186 176 176 175 170 166 166 166 165 164 162 159 157 157 156 153 148 145
297 284 277 267 258 251 241 233 223 215 210 209 201 188 186 182 182 182 178 176 176 169 167 165 163 162 163 162 161 160 157 154 151 148 145 142 140 139
304 290 280 283 285 270 257 242 229 219 208 204 202 191 187 182 188 181 178 165 167 163 157 161 158 161 161 158 157 156 152 149 147 145 141 138 137 136
318 308 288 252 253 248 253 254 249 231 215 207 205 202 198 190 181 178 172 169 170 165 157 155 154 155 157 158 158 155 152 149 146 144 141 138 137 137
330 328 323 333 289 249 219 227 236 237 235 225 215 213 203 192 184 184 182 174 163 156 147 146 149 148 146 148 154 155 153 151 149 147 145 142 140 140
337 335 330 333 354 330 292 253 245 224 226 229 229 224 210 195 189 184 170 147 123 134 137 133 137 129 128 140 149 150 150 150 150 149 147 144 141 141
341 349 344 340 5 327 291 279 271 245 212 245 253 232 199 180 171 164 163 157 147 136 120 122 128 112 106 124 142 144 145 147 148 150 150 146 145 150
332 342 16 355 343 318 288 272 263 252 220 192 195 188 183 169 171 179 171 163 148 140 147 129 138 131 116 97 131 146 143 143 146 150 153 154 163 182
327 336 357 360 338 324 305 303 318 301 258 211 177 173 168 167 172 178 173 167 159 142 153 139 145 139 127 130 130 149 152 154 156 156 160 167 186 226
320 329 354 358 340 327 314 356 315 283 244 195 166 156 151 148 141 140 135 128 127 139 154 150 146 153 139 137 141 152 163 168 170 171 173 173 192 212
319 340 335 331 312 288 54 351 285 255 210 180 146 129 115 118 115 107 100 98 96 111 141 149 144 150 148 148 151 157 164 179 186 182 178 181 191 192
281 251 237 284 306 1 332 252 321 6 7 124 116 111 113 118 120 120 121 119 108 100 101 129 142 148 145 148 155 164 169 173 182 189 188 193 198 198
319 288 272 246 225 150 77 49 31 92 108 119 129 133 130 125 124 129 134 131 127 131 125 115 113 111 123 148 161 170 173 175 177 183 188 196 203 207
292 269 258 258 258 234 178 144 142 121 127 133 134 138 140 137 132 136 147 146 141 142 142 142 138 131 124 91 157 174 176 177 175 181 193 202 208 206
268 262 252 244 239 229 211 194 185 162 150 143 141 141 141 142 143 145 149 147 144 146 149 156 167 169 173 171 165 223 188 176 176 185 200 211 220 211
251 255 248 241 235 225 214 202 188 173 169 160 153 154 153 149 150 154 157 156 151 150 154 168 183 191 195 177 156 168 210 191 187 195 199 209 221 202
245 245 244 239 234 229 221 210 199 191 184 179 170 169 167 163 161 163 157 152 158 162 168 172 154 127 119 127 148 160 170 199 260 217 205 202 212 220
244 241 238 237 234 228 219 215 209 200 193 191 183 181 176 173 169 169 166 168 175 174 168 146 148 174 191 199 199 175 168 175 179 249 277 259 231 231
234 234 233 228 229 227 221 217 216 208 201 198 191 187 183 180 177 175 176 177 173 168 160 158 167 184 198 204 209 197 185 187 190 200 218 216 226 243